| time (UTC) | temp F | wind direction | speed MPH | gust MPH | rain 1hr in | rain 24hr in | rain mn in | humidity % | barometer mb |
| 20260505205621 | 46 | 227 | 3.0 | 7.0 | 0.00 | 0.36 | 0.36 | 77 | 925.1 |
| 20260505205119 | 45 | 337 | 6.0 | 8.0 | 0.00 | 0.36 | 0.36 | 78 | 925.1 |
| 20260505204615 | 45 | 182 | 3.0 | 5.0 | 0.00 | 0.36 | 0.36 | 81 | 925.3 |
| 20260505204113 | 44 | 333 | 4.0 | 6.0 | 0.00 | 0.36 | 0.36 | 85 | 925.2 |
| 20260505203609 | 43 | 273 | 5.0 | 6.0 | 0.00 | 0.36 | 0.36 | 87 | 925.2 |
| 20260505203107 | 43 | 169 | 3.0 | 3.0 | 0.00 | 0.36 | 0.36 | 89 | 925.4 |
| 20260505202602 | 42 | 311 | 2.0 | 6.0 | 0.00 | 0.36 | 0.36 | 91 | 925.7 |
| 20260505202058 | 41 | 337 | 2.0 | 6.0 | 0.00 | 0.36 | 0.36 | 92 | 925.4 |
| 20260505201555 | 41 | 238 | 3.0 | 6.0 | 0.00 | 0.36 | 0.36 | 92 | 925.4 |
| 20260505201053 | 42 | 27 | 1.0 | 2.0 | 0.00 | 0.36 | 0.36 | 93 | 925.4 |
| 20260505200550 | 41 | 300 | 2.0 | 3.0 | 0.00 | 0.36 | 0.36 | 93 | 925.3 |
| 20260505200047 | 42 | 261 | 1.0 | 5.0 | 0.00 | 0.36 | 0.36 | 92 | 925.3 |
| 20260505195543 | 42 | 192 | 3.0 | 6.0 | 0.00 | 0.36 | 0.36 | 92 | 925.6 |
| 20260505195041 | 42 | 22 | 0.0 | 0.0 | 0.00 | 0.36 | 0.36 | 93 | 925.4 |
| 20260505194538 | 42 | 329 | 1.0 | 2.0 | 0.00 | 0.36 | 0.36 | 93 | 925.2 |
| 20260505194033 | 42 | 89 | 3.0 | 3.0 | 0.00 | 0.36 | 0.36 | 93 | 925.2 |
| 20260505193531 | 41 | 147 | 4.0 | 7.0 | 0.00 | 0.36 | 0.36 | 94 | 925.2 |
| 20260505193028 | 41 | 93 | 2.0 | 3.0 | 0.00 | 0.36 | 0.36 | 94 | 925.1 |
| 20260505192526 | 40 | 167 | 2.0 | 5.0 | 0.07 | 0.36 | 0.36 | 95 | 925.4 |
| 20260505192024 | 40 | 127 | 3.0 | 6.0 | 0.12 | 0.36 | 0.36 | 95 | 925.4 |
| 20260505191522 | 40 | 122 | 3.0 | 3.0 | 0.12 | 0.35 | 0.35 | 95 | 925.5 |
| 20260505191020 | 39 | 87 | 2.0 | 3.0 | 0.19 | 0.34 | 0.34 | 95 | 925.5 |
| 20260505190514 | 39 | 61 | 1.0 | 3.0 | 0.24 | 0.33 | 0.33 | 95 | 925.7 |
| 20260505190010 | 40 | 80 | 1.0 | 2.0 | 0.24 | 0.31 | 0.31 | 96 | 925.6 |
| 20260505185507 | 39 | 76 | 0.0 | 0.0 | 0.24 | 0.29 | 0.29 | 96 | 925.9 |
| 20260505185003 | 38 | 37 | 0.0 | 0.0 | 0.26 | 0.26 | 0.26 | 96 | 925.3 |
| 20260505184500 | 38 | 39 | 0.0 | 0.0 | 0.31 | 0.24 | 0.24 | 96 | 925.6 |
| 20260505183957 | 38 | 49 | 0.0 | 0.0 | 0.19 | 0.21 | 0.21 | 96 | 925.6 |
| 20260505183454 | 37 | 46 | 0.0 | 0.0 | 0.19 | 0.19 | 0.19 | 96 | 925.7 |
| 20260505182950 | 37 | 53 | 0.0 | 0.0 | 0.19 | 0.17 | 0.17 | 96 | 925.4 |
| 20260505182447 | 37 | 50 | 0.0 | 0.0 | 0.17 | 0.16 | 0.16 | 96 | 925.5 |
| 20260505181944 | 36 | 55 | 0.0 | 0.0 | 0.05 | 0.14 | 0.14 | 96 | 925.7 |
| 20260505181441 | 36 | 71 | 0.0 | 0.0 | 0.00 | 0.13 | 0.13 | 96 | 925.7 |
| 20260505180938 | 36 | 90 | 0.0 | 0.0 | 0.00 | 0.13 | 0.13 | 96 | 925.6 |
| 20260505180434 | 36 | 87 | 2.0 | 3.0 | 0.00 | 0.13 | 0.13 | 96 | 925.5 |
| 20260505175931 | 36 | 80 | 1.0 | 3.0 | 0.00 | 0.13 | 0.13 | 96 | 925.6 |
| 20260505175427 | 36 | 100 | 1.0 | 2.0 | 0.00 | 0.13 | 0.13 | 95 | 925.4 |
| 20260505174924 | 36 | 98 | 1.0 | 2.0 | 0.00 | 0.13 | 0.13 | 95 | 925.7 |
| 20260505174422 | 35 | 140 | 2.0 | 2.0 | 0.00 | 0.13 | 0.13 | 95 | 925.7 |
| 20260505173917 | 35 | 119 | 2.0 | 3.0 | 0.00 | 0.13 | 0.13 | 95 | 925.5 |
| 20260505173414 | 35 | 122 | 0.0 | 2.0 | 0.00 | 0.13 | 0.13 | 95 | 925.9 |
| 20260505172911 | 35 | 96 | 1.0 | 2.0 | 0.00 | 0.13 | 0.13 | 95 | 925.7 |
| 20260505172409 | 35 | 60 | 0.0 | 1.0 | 0.00 | 0.13 | 0.13 | 95 | 925.7 |
| 20260505171908 | 35 | 82 | 2.0 | 2.0 | 0.00 | 0.13 | 0.13 | 95 | 925.7 |
| 20260505171405 | 35 | 54 | 3.0 | 3.0 | 0.00 | 0.13 | 0.13 | 95 | 925.6 |
| 20260505170902 | 35 | 51 | 3.0 | 5.0 | 0.07 | 0.13 | 0.13 | 95 | 925.7 |
| 20260505170359 | 36 | 65 | 1.0 | 8.0 | 0.07 | 0.13 | 0.13 | 95 | 925.4 |
| 20260505165854 | 36 | 37 | 1.0 | 9.0 | 0.07 | 0.12 | 0.12 | 95 | 925.6 |
| 20260505165350 | 36 | 63 | 2.0 | 7.0 | 0.12 | 0.12 | 0.12 | 95 | 925.4 |
| 20260505164846 | 36 | 79 | 1.0 | 6.0 | 0.05 | 0.11 | 0.11 | 95 | 925.5 |
| 20260505164342 | 36 | 80 | 3.0 | 6.0 | 0.07 | 0.10 | 0.10 | 95 | 925.7 |
| 20260505163841 | 36 | 70 | 3.0 | 7.0 | 0.07 | 0.10 | 0.10 | 95 | 925.6 |
| 20260505163339 | 36 | 67 | 2.0 | 2.0 | 0.00 | 0.09 | 0.09 | 94 | 926.3 |
| 20260505162838 | 36 | 70 | 2.0 | 6.0 | 0.00 | 0.09 | 0.09 | 94 | 926.2 |
| 20260505162333 | 35 | 68 | 5.0 | 7.0 | 0.00 | 0.09 | 0.09 | 94 | 926.5 |
| 20260505161831 | 35 | 78 | 4.0 | 6.0 | 0.00 | 0.09 | 0.09 | 94 | 926.7 |
| 20260505161328 | 35 | 41 | 1.0 | 3.0 | 0.00 | 0.09 | 0.09 | 93 | 927.0 |
| 20260505160825 | 36 | 49 | 4.0 | 6.0 | 0.00 | 0.09 | 0.09 | 93 | 926.5 |
| 20260505160323 | 36 | 61 | 4.0 | 9.0 | 0.00 | 0.09 | 0.09 | 92 | 925.6 |
| 20260505153301 | 40 | 37 | 7.0 | 10.0 | 0.00 | 0.04 | 0.04 | 88 | 924.8 |
| 20260505152800 | 40 | 81 | 5.0 | 9.0 | 0.00 | 0.04 | 0.04 | 88 | 924.8 |
| 20260505152256 | 40 | 36 | 5.0 | 7.0 | 0.00 | 0.04 | 0.04 | 87 | 924.7 |
| 20260505151755 | 40 | 71 | 6.0 | 9.0 | 0.00 | 0.04 | 0.04 | 88 | 924.7 |
| 20260505151253 | 40 | 104 | 5.0 | 7.0 | 0.00 | 0.04 | 0.04 | 88 | 924.3 |
| 20260505150750 | 40 | 106 | 5.0 | 8.0 | 0.00 | 0.04 | 0.04 | 89 | 924.6 |
| 20260505150247 | 40 | 114 | 5.0 | 6.0 | 0.00 | 0.04 | 0.04 | 89 | 924.6 |
| 20260505140211 | 40 | 70 | 2.0 | 7.0 | 0.00 | 0.03 | 0.03 | 88 | 924.7 |
| 20260505130135 | 42 | 92 | 9.0 | 10.0 | 0.00 | 0.02 | 0.02 | 78 | 923.9 |
| 20260505124624 | 42 | 87 | 7.0 | 11.0 | 0.00 | 0.02 | 0.02 | 80 | 923.9 |
| 20260505124121 | 42 | 97 | 9.0 | 13.0 | 0.00 | 0.02 | 0.02 | 80 | 923.9 |
| 20260505123617 | 42 | 90 | 7.0 | 8.0 | 0.00 | 0.02 | 0.02 | 81 | 923.7 |
| 20260505123114 | 42 | 70 | 4.0 | 9.0 | 0.00 | 0.02 | 0.02 | 81 | 923.7 |
| 20260505122611 | 42 | 102 | 7.0 | 8.0 | 0.00 | 0.02 | 0.02 | 82 | 923.9 |
| 20260505122108 | 42 | 94 | 4.0 | 8.0 | 0.00 | 0.02 | 0.02 | 84 | 923.9 |
| 20260505121604 | 42 | 66 | 5.0 | 7.0 | 0.00 | 0.02 | 0.02 | 85 | 923.8 |
| 20260505121101 | 42 | 55 | 7.0 | 9.0 | 0.00 | 0.02 | 0.02 | 87 | 923.9 |
| 20260505120557 | 42 | 79 | 4.0 | 8.0 | 0.00 | 0.02 | 0.02 | 87 | 923.9 |
| 20260505120053 | 42 | 61 | 2.0 | 5.0 | 0.00 | 0.02 | 0.02 | 87 | 923.8 |
| 20260505115547 | 42 | 55 | 3.0 | 6.0 | 0.00 | 0.02 | 0.02 | 86 | 923.7 |
| 20260505115045 | 42 | 65 | 3.0 | 7.0 | 0.07 | 0.02 | 0.02 | 85 | 923.9 |
| 20260505114542 | 43 | 104 | 3.0 | 7.0 | 0.12 | 0.02 | 0.02 | 84 | 923.7 |
| 20260505114038 | 44 | 46 | 1.0 | 6.0 | 0.05 | 0.01 | 0.01 | 81 | 923.7 |
| 20260505113535 | 44 | 56 | 2.0 | 6.0 | 0.00 | 0.00 | 0.00 | 76 | 923.7 |
| 20260505113032 | 44 | 87 | 4.0 | 6.0 | 0.00 | 0.00 | 0.00 | 76 | 923.7 |
| 20260505112528 | 44 | 79 | 1.0 | 6.0 | 0.00 | 0.00 | 0.00 | 75 | 923.8 |
| 20260505112026 | 45 | 33 | 0.0 | 0.0 | 0.00 | 0.00 | 0.00 | 74 | 923.7 |
| 20260505111520 | 45 | 32 | 1.0 | 2.0 | 0.00 | 0.00 | 0.00 | 74 | 923.8 |
| 20260505111017 | 45 | 351 | 3.0 | 5.0 | 0.00 | 0.00 | 0.00 | 74 | 923.7 |
| 20260505110513 | 45 | 2 | 3.0 | 5.0 | 0.00 | 0.00 | 0.00 | 74 | 923.8 |
| 20260505101945 | 47 | 1 | 4.0 | 8.0 | 0.00 | 0.00 | 0.00 | 76 | 923.5 |
| 20260505101443 | 47 | 354 | 0.0 | 2.0 | 0.00 | 0.00 | 0.00 | 75 | 923.5 |
| 20260505100939 | 47 | 6 | 0.0 | 0.0 | 0.00 | 0.00 | 0.00 | 75 | 923.5 |
| 20260505100438 | 47 | 340 | 0.0 | 3.0 | 0.00 | 0.00 | 0.00 | 74 | 923.5 |
| 20260505095933 | 48 | 272 | 3.0 | 6.0 | 0.00 | 0.00 | 0.00 | 73 | 923.3 |
| 20260505095430 | 48 | 257 | 0.0 | 0.0 | 0.00 | 0.00 | 0.00 | 71 | 923.3 |
| 20260505094926 | 49 | 258 | 0.0 | 3.0 | 0.00 | 0.00 | 0.00 | 69 | 923.5 |
| 20260505094423 | 49 | 299 | 3.0 | 6.0 | 0.00 | 0.00 | 0.00 | 68 | 923.3 |
| 20260505093919 | 49 | 226 | 5.0 | 6.0 | 0.00 | 0.00 | 0.00 | 66 | 923.5 |
| 20260505093416 | 49 | 254 | 5.0 | 6.0 | 0.00 | 0.00 | 0.00 | 65 | 923.2 |
| 20260505092913 | 49 | 254 | 4.0 | 5.0 | 0.00 | 0.00 | 0.00 | 66 | 923.6 |
| 20260505092411 | 49 | 214 | 1.0 | 5.0 | 0.00 | 0.00 | 0.00 | 67 | 923.2 |
| 20260505091908 | 49 | 189 | 2.0 | 6.0 | 0.00 | 0.00 | 0.00 | 67 | 923.6 |
| 20260505091406 | 49 | 202 | 4.0 | 6.0 | 0.00 | 0.00 | 0.00 | 67 | 923.6 |
| 20260505090904 | 50 | 216 | 3.0 | 8.0 | 0.00 | 0.00 | 0.00 | 66 | 923.3 |
| 20260505090402 | 50 | 236 | 6.0 | 10.0 | 0.00 | 0.00 | 0.00 | 65 | 923.6 |
| 20260505085859 | 50 | 185 | 4.0 | 8.0 | 0.00 | 0.00 | 0.00 | 64 | 923.6 |
| 20260505085357 | 50 | 192 | 5.0 | 8.0 | 0.00 | 0.00 | 0.00 | 63 | 923.5 |
| 20260505084854 | 50 | 195 | 3.0 | 7.0 | 0.00 | 0.00 | 0.00 | 63 | 923.5 |
| 20260505084352 | 50 | 139 | 3.0 | 8.0 | 0.00 | 0.00 | 0.00 | 63 | 923.6 |
| 20260505083850 | 50 | 204 | 5.0 | 8.0 | 0.00 | 0.00 | 0.00 | 62 | 923.3 |
| 20260505083347 | 50 | 200 | 8.0 | 11.0 | 0.00 | 0.00 | 0.00 | 62 | 923.3 |
| 20260505082843 | 50 | 213 | 3.0 | 6.0 | 0.00 | 0.00 | 0.00 | 62 | 923.5 |
| 20260505082339 | 51 | 189 | 0.0 | 6.0 | 0.00 | 0.00 | 0.00 | 61 | 923.3 |
| 20260505081836 | 51 | 203 | 7.0 | 8.0 | 0.00 | 0.00 | 0.00 | 60 | 923.5 |
| 20260505081333 | 51 | 193 | 5.0 | 7.0 | 0.00 | 0.00 | 0.00 | 59 | 923.6 |
| 20260505080830 | 51 | 169 | 2.0 | 7.0 | 0.00 | 0.00 | 0.00 | 58 | 923.7 |
| 20260505080325 | 51 | 182 | 5.0 | 6.0 | 0.00 | 0.00 | 0.00 | 59 | 923.3 |
| 20260505075821 | 51 | 97 | 0.0 | 0.0 | 0.00 | 0.00 | 0.00 | 59 | 923.8 |
| 20260505075318 | 50 | 37 | 0.0 | 0.0 | 0.00 | 0.00 | 0.00 | 60 | 923.5 |
| 20260505074816 | 50 | 108 | 0.0 | 0.0 | 0.00 | 0.00 | 0.00 | 60 | 923.6 |
| 20260505074313 | 50 | 159 | 0.0 | 0.0 | 0.00 | 0.00 | 0.00 | 60 | 923.5 |
| 20260505073810 | 50 | 126 | 0.0 | 0.0 | 0.00 | 0.00 | 0.00 | 61 | 923.5 |
| 20260505073308 | 50 | 125 | 0.0 | 0.0 | 0.00 | 0.00 | 0.00 | 60 | 923.5 |
| 20260505072805 | 50 | 223 | 0.0 | 2.0 | 0.00 | 0.00 | 0.00 | 62 | 923.2 |
| 20260505072301 | 49 | 51 | 0.0 | 1.0 | 0.00 | 0.00 | 0.00 | 62 | 923.3 |
| 20260505071756 | 48 | 85 | 0.0 | 5.0 | 0.00 | 0.00 | 0.00 | 65 | 923.6 |
| 20260505071253 | 46 | 130 | 0.0 | 1.0 | 0.00 | 0.00 | 0.00 | 69 | 923.3 |
| 20260505070751 | 45 | 15 | 1.0 | 2.0 | 0.00 | 0.00 | 0.00 | 70 | 923.6 |
| 20260505070247 | 47 | 47 | 7.0 | 9.0 | 0.00 | 0.00 | 0.00 | 68 | 923.5 |
| 20260505065743 | 48 | 59 | 0.0 | 0.0 | 0.00 | 0.00 | 0.00 | 65 | 923.0 |
| 20260505065240 | 49 | 64 | 0.0 | 0.0 | 0.00 | 0.00 | 0.00 | 63 | 923.2 |
| 20260505064737 | 49 | 103 | 0.0 | 0.0 | 0.00 | 0.00 | 0.00 | 61 | 923.3 |
| 20260505064234 | 49 | 188 | 0.0 | 0.0 | 0.00 | 0.00 | 0.00 | 61 | 923.3 |
| 20260505063732 | 49 | 83 | 0.0 | 0.0 | 0.00 | 0.00 | 0.00 | 62 | 923.6 |
| 20260505063228 | 49 | 104 | 0.0 | 0.0 | 0.00 | 0.00 | 0.00 | 62 | 923.0 |
| 20260505062724 | 49 | 69 | 0.0 | 0.0 | 0.00 | 0.00 | 0.00 | 64 | 923.1 |
| 20260505062222 | 48 | 71 | 0.0 | 0.0 | 0.00 | 0.00 | 0.00 | 64 | 923.1 |
| 20260505061719 | 48 | 74 | 0.0 | 0.0 | 0.00 | 0.00 | 0.00 | 66 | 923.3 |
| 20260505061217 | 48 | 80 | 0.0 | 0.0 | 0.00 | 0.00 | 0.00 | 66 | 923.2 |
| 20260505060714 | 47 | 69 | 0.0 | 0.0 | 0.00 | 0.00 | 0.00 | 66 | 923.1 |
| 20260505060211 | 47 | 54 | 0.0 | 0.0 | 0.00 | 0.00 | 0.00 | 68 | 923.2 |
| 20260505055706 | 47 | 50 | 0.0 | 1.0 | 0.00 | 0.00 | 0.00 | 68 | 923.0 |
| 20260505055203 | 47 | 70 | 0.0 | 0.0 | 0.00 | 0.00 | 0.00 | 67 | 923.0 |
| 20260505054700 | 48 | 60 | 1.0 | 1.0 | 0.00 | 0.00 | 0.00 | 66 | 923.1 |
| 20260505054158 | 49 | 47 | 0.0 | 2.0 | 0.00 | 0.00 | 0.00 | 64 | 923.1 |
| 20260505053656 | 49 | 52 | 0.0 | 1.0 | 0.00 | 0.00 | 0.00 | 65 | 923.2 |
| 20260505053152 | 50 | 47 | 0.0 | 0.0 | 0.00 | 0.00 | 0.00 | 63 | 923.1 |
| 20260505052649 | 50 | 30 | 0.0 | 0.0 | 0.00 | 0.00 | 0.00 | 60 | 923.3 |
| 20260505052146 | 50 | 30 | 0.0 | 0.0 | 0.00 | 0.00 | 0.00 | 62 | 923.3 |
| 20260505051643 | 50 | 79 | 0.0 | 0.0 | 0.00 | 0.00 | 0.00 | 64 | 923.6 |
| 20260505051141 | 50 | 108 | 0.0 | 1.0 | 0.00 | 0.00 | 0.00 | 63 | 923.5 |
| 20260505050639 | 50 | 94 | 0.0 | 0.0 | 0.00 | 0.00 | 0.00 | 63 | 923.6 |
| 20260505050137 | 50 | 81 | 0.0 | 2.0 | 0.00 | 0.00 | 0.00 | 62 | 923.5 |
| 20260505041606 | 51 | 95 | 0.0 | 0.0 | 0.00 | 0.00 | 0.00 | 58 | 923.8 |
| 20260505041104 | 50 | 137 | 0.0 | 0.0 | 0.00 | 0.00 | 0.00 | 61 | 923.8 |
| 20260505040601 | 50 | 72 | 0.0 | 0.0 | 0.00 | 0.00 | 0.00 | 61 | 923.6 |
| 20260505040058 | 50 | 49 | 0.0 | 0.0 | 0.00 | 0.00 | 0.00 | 62 | 923.6 |
| 20260505035554 | 50 | 55 | 0.0 | 2.0 | 0.00 | 0.00 | 0.00 | 60 | 923.7 |
| 20260505035051 | 50 | 54 | 0.0 | 1.0 | 0.00 | 0.00 | 0.00 | 62 | 923.3 |
| 20260505034547 | 53 | 71 | 0.0 | 0.0 | 0.00 | 0.00 | 0.00 | 54 | 923.2 |
| 20260505034044 | 53 | 78 | 0.0 | 0.0 | 0.00 | 0.00 | 0.00 | 55 | 923.2 |
| 20260505033541 | 52 | 78 | 0.0 | 0.0 | 0.00 | 0.00 | 0.00 | 56 | 923.0 |
| 20260505033040 | 52 | 89 | 0.0 | 0.0 | 0.00 | 0.00 | 0.00 | 57 | 923.0 |
| 20260505032537 | 52 | 68 | 0.0 | 0.0 | 0.00 | 0.00 | 0.00 | 57 | 923.2 |
| 20260505032033 | 54 | 62 | 1.0 | 1.0 | 0.00 | 0.00 | 0.00 | 58 | 922.9 |
| 20260505031531 | 54 | 20 | 0.0 | 0.0 | 0.00 | 0.00 | 0.00 | 52 | 923.1 |
| 20260505031027 | 54 | 20 | 0.0 | 0.0 | 0.00 | 0.00 | 0.00 | 52 | 922.9 |
| 20260505030524 | 53 | 20 | 0.0 | 0.0 | 0.00 | 0.00 | 0.00 | 53 | 922.9 |
| 20260505030020 | 54 | 19 | 0.0 | 0.0 | 0.00 | 0.00 | 0.00 | 55 | 922.9 |
| 20260505025516 | 55 | 18 | 0.0 | 0.0 | 0.00 | 0.00 | 0.00 | 50 | 922.9 |
| 20260505025015 | 55 | 18 | 0.0 | 0.0 | 0.00 | 0.00 | 0.00 | 49 | 923.0 |
| 20260505024511 | 55 | 10 | 0.0 | 0.0 | 0.00 | 0.00 | 0.00 | 49 | 922.7 |
| 20260505024009 | 55 | 16 | 0.0 | 0.0 | 0.00 | 0.00 | 0.00 | 49 | 922.7 |
| 20260505023505 | 55 | 342 | 0.0 | 0.0 | 0.00 | 0.00 | 0.00 | 49 | 922.5 |
| 20260505023003 | 55 | 36 | 0.0 | 0.0 | 0.00 | 0.00 | 0.00 | 49 | 922.5 |
| 20260505022500 | 55 | 7 | 0.0 | 0.0 | 0.00 | 0.00 | 0.00 | 50 | 922.7 |
| 20260505021958 | 56 | 8 | 0.0 | 2.0 | 0.00 | 0.00 | 0.00 | 50 | 922.5 |
| 20260505021454 | 56 | 310 | 2.0 | 2.0 | 0.00 | 0.00 | 0.00 | 49 | 922.5 |
| 20260505020949 | 56 | 288 | 0.0 | 5.0 | 0.00 | 0.00 | 0.00 | 49 | 922.8 |
| 20260505020445 | 57 | 355 | 0.0 | 5.0 | 0.00 | 0.00 | 0.00 | 48 | 922.4 |
| 20260505015942 | 58 | 350 | 0.0 | 0.0 | 0.00 | 0.00 | 0.00 | 47 | 922.3 |
| 20260505015439 | 57 | 317 | 0.0 | 5.0 | 0.00 | 0.00 | 0.00 | 47 | 922.5 |
| 20260505014937 | 57 | 359 | 0.0 | 3.0 | 0.00 | 0.00 | 0.00 | 47 | 922.3 |
| 20260505014433 | 58 | 334 | 0.0 | 2.0 | 0.00 | 0.00 | 0.00 | 47 | 922.4 |
| 20260505013930 | 58 | 283 | 3.0 | 6.0 | 0.00 | 0.00 | 0.00 | 47 | 922.7 |
| 20260505013427 | 58 | 256 | 5.0 | 6.0 | 0.00 | 0.00 | 0.00 | 46 | 922.5 |
| 20260505012925 | 58 | 271 | 6.0 | 8.0 | 0.00 | 0.00 | 0.00 | 46 | 922.1 |
| 20260505012423 | 59 | 272 | 9.0 | 11.0 | 0.00 | 0.00 | 0.00 | 45 | 922.5 |
| 20260505011919 | 59 | 194 | 5.0 | 7.0 | 0.00 | 0.00 | 0.00 | 45 | 922.5 |
| 20260505011416 | 59 | 263 | 7.0 | 10.0 | 0.00 | 0.00 | 0.00 | 45 | 922.7 |
| 20260505010912 | 59 | 207 | 5.0 | 13.0 | 0.00 | 0.00 | 0.00 | 45 | 923.0 |
| 20260505010408 | 60 | 224 | 9.0 | 14.0 | 0.00 | 0.00 | 0.00 | 44 | 923.0 |
| 20260505005904 | 60 | 240 | 9.0 | 14.0 | 0.00 | 0.00 | 0.00 | 43 | 923.2 |
| 20260505005401 | 61 | 210 | 7.0 | 20.0 | 0.00 | 0.00 | 0.00 | 42 | 923.2 |
| 20260505004859 | 61 | 275 | 6.0 | 18.0 | 0.00 | 0.00 | 0.00 | 41 | 923.1 |
| 20260505004355 | 62 | 246 | 6.0 | 16.0 | 0.00 | 0.00 | 0.00 | 41 | 923.1 |
| 20260505003852 | 62 | 209 | 8.0 | 16.0 | 0.00 | 0.00 | 0.00 | 39 | 922.9 |
| 20260505003349 | 62 | 260 | 10.0 | 18.0 | 0.00 | 0.00 | 0.00 | 39 | 923.0 |
| 20260505002845 | 62 | 241 | 7.0 | 21.0 | 0.00 | 0.00 | 0.00 | 40 | 923.0 |
| 20260505002342 | 63 | 247 | 14.0 | 20.0 | 0.00 | 0.00 | 0.00 | 38 | 922.8 |
| 20260505001841 | 64 | 261 | 7.0 | 20.0 | 0.00 | 0.00 | 0.00 | 38 | 922.7 |
| 20260505001337 | 64 | 223 | 6.0 | 18.0 | 0.00 | 0.00 | 0.00 | 36 | 922.7 |
| 20260505000835 | 65 | 256 | 11.0 | 21.0 | 0.00 | 0.00 | 0.00 | 36 | 922.5 |
| 20260505000332 | 67 | 264 | 5.0 | 10.0 | 0.00 | 0.00 | 0.00 | 29 | 922.7 |
| 20260504235829 | 66 | 297 | 5.0 | 13.0 | 0.00 | 0.00 | 0.00 | 30 | 922.5 |
| 20260504235326 | 66 | 263 | 8.0 | 15.0 | 0.00 | 0.00 | 0.00 | 30 | 922.4 |
| 20260504234822 | 66 | 316 | 9.0 | 11.0 | 0.00 | 0.00 | 0.00 | 28 | 922.7 |
| 20260504234320 | 66 | 136 | 6.0 | 11.0 | 0.00 | 0.00 | 0.00 | 28 | 922.7 |
| 20260504233816 | 67 | 217 | 4.0 | 10.0 | 0.00 | 0.00 | 0.00 | 28 | 922.5 |
| 20260504233312 | 67 | 265 | 5.0 | 11.0 | 0.00 | 0.00 | 0.00 | 28 | 922.5 |
| 20260504232809 | 66 | 257 | 7.0 | 10.0 | 0.00 | 0.00 | 0.00 | 27 | 922.4 |
| 20260504232306 | 67 | 129 | 0.0 | 5.0 | 0.00 | 0.00 | 0.00 | 27 | 922.5 |
| 20260504231803 | 68 | 0 | 1.0 | 9.0 | 0.00 | 0.00 | 0.00 | 27 | 922.7 |
| 20260504231259 | 68 | 299 | 1.0 | 6.0 | 0.00 | 0.00 | 0.00 | 27 | 922.9 |
| 20260504230755 | 68 | 294 | 2.0 | 11.0 | 0.00 | 0.00 | 0.00 | 26 | 922.8 |
| 20260504230254 | 68 | 289 | 2.0 | 8.0 | 0.00 | 0.00 | 0.00 | 27 | 922.5 |
| 20260504225752 | 68 | 311 | 0.0 | 1.0 | 0.00 | 0.00 | 0.00 | 25 | 922.7 |
| 20260504225248 | 66 | 317 | 0.0 | 10.0 | 0.00 | 0.00 | 0.00 | 27 | 922.7 |
| 20260504224745 | 66 | 352 | 0.0 | 3.0 | 0.00 | 0.00 | 0.00 | 26 | 922.8 |
| 20260504224243 | 66 | 51 | 0.0 | 9.0 | 0.00 | 0.00 | 0.00 | 27 | 922.9 |
| 20260504223739 | 66 | 226 | 7.0 | 10.0 | 0.00 | 0.00 | 0.00 | 27 | 922.9 |
| 20260504223235 | 66 | 265 | 11.0 | 13.0 | 0.00 | 0.00 | 0.00 | 28 | 922.8 |
| 20260504222732 | 68 | 309 | 7.0 | 11.0 | 0.00 | 0.00 | 0.00 | 27 | 922.8 |
| 20260504222228 | 69 | 203 | 7.0 | 11.0 | 0.00 | 0.00 | 0.00 | 27 | 923.0 |
| 20260504221726 | 69 | 129 | 2.0 | 11.0 | 0.00 | 0.00 | 0.00 | 26 | 922.9 |
| 20260504221223 | 67 | 356 | 6.0 | 8.0 | 0.00 | 0.00 | 0.00 | 26 | 923.0 |
| 20260504220719 | 67 | 358 | 7.0 | 14.0 | 0.00 | 0.00 | 0.00 | 26 | 923.0 |
| 20260504220217 | 68 | 294 | 8.0 | 14.0 | 0.00 | 0.00 | 0.00 | 27 | 923.2 |
| 20260504215714 | 66 | 269 | 3.0 | 14.0 | 0.00 | 0.00 | 0.00 | 26 | 923.2 |
| 20260504215211 | 67 | 315 | 3.0 | 8.0 | 0.00 | 0.00 | 0.00 | 26 | 923.1 |
| 20260504214706 | 67 | 315 | 5.0 | 13.0 | 0.00 | 0.00 | 0.00 | 27 | 923.5 |
| 20260504214203 | 66 | 341 | 1.0 | 11.0 | 0.00 | 0.00 | 0.00 | 29 | 923.1 |
| 20260504213700 | 66 | 318 | 3.0 | 10.0 | 0.00 | 0.00 | 0.00 | 28 | 923.1 |
| 20260504213156 | 65 | 282 | 5.0 | 11.0 | 0.00 | 0.00 | 0.00 | 31 | 923.1 |
| 20260504212653 | 67 | 206 | 12.0 | 16.0 | 0.00 | 0.00 | 0.00 | 30 | 923.5 |
| 20260504212150 | 66 | 265 | 8.0 | 14.0 | 0.00 | 0.00 | 0.00 | 29 | 923.7 |
| 20260504211647 | 66 | 290 | 9.0 | 18.0 | 0.00 | 0.00 | 0.00 | 28 | 923.7 |
| 20260504211143 | 66 | 281 | 13.0 | 30.0 | 0.00 | 0.00 | 0.00 | 29 | 923.7 |
| 20260504210641 | 69 | 295 | 10.0 | 16.0 | 0.00 | 0.00 | 0.00 | 27 | 923.5 |
| 20260504210137 | 68 | 217 | 5.0 | 9.0 | 0.00 | 0.00 | 0.00 | 27 | 923.6 |